ARIANE 40 R/B

Last updated on Sun Sep 20 2026 00:02:08 GMT+0000 (Coordinated Universal Time)

1 22830U 93061H 26262.47247852 .00000085 00000+0 46879-4 0 9991 2 22830 98.4727 327.3289 0011822 73.0118 287.2361 14.32938271721854
UTC large
Height (km)
Speed (km/s)
/
Latitude / Longitude
Inclination (degrees)
Orbital Period (minutes)
Azimuth
Elevation
Range (km)
Doppler Factor

Next 0 passes for location: London (51.5072 / 0.1276)

No passes found over London.
ARIANE 40 R/B